| time (UTC) | temp C | wind direction | speed KPH | gust KPH | rain 1hr cm | rain 24hr cm | rain mn cm | humidity % | barometer mb |
| 20260505035118 | 8 | 195 | 9.7 | 17.7 | 0.20 | 0.53 | 0.53 | 85 | 1010.5 |
| 20260505034100 | 8 | 196 | 14.5 | 17.7 | 0.25 | 0.51 | 0.51 | 85 | 1010.3 |
| 20260505034018 | 8 | 196 | 14.5 | 17.7 | 0.25 | 0.51 | 0.51 | 85 | 1010.3 |
| 20260505033103 | 9 | 202 | 14.5 | 22.5 | 0.30 | 0.48 | 0.48 | 85 | 1010.6 |
| 20260505033020 | 9 | 202 | 14.5 | 22.5 | 0.30 | 0.48 | 0.48 | 85 | 1010.6 |
| 20260505032105 | 9 | 203 | 11.3 | 14.5 | 0.33 | 0.46 | 0.46 | 86 | 1010.6 |
| 20260505032023 | 9 | 203 | 11.3 | 14.5 | 0.33 | 0.46 | 0.46 | 86 | 1010.6 |
| 20260505031129 | 9 | 224 | 12.9 | 16.1 | 0.33 | 0.43 | 0.43 | 85 | 1010.4 |
| 20260505030111 | 9 | 234 | 11.3 | 14.5 | 0.28 | 0.38 | 0.38 | 86 | 1010.3 |
| 20260505025030 | 9 | 221 | 8.0 | 11.3 | 0.23 | 0.33 | 0.33 | 85 | 1010.2 |
| 20260505024011 | 9 | 235 | 3.2 | 6.4 | 0.15 | 0.25 | 0.25 | 83 | 1010.0 |
| 20260505023016 | 9 | 278 | 1.6 | 3.2 | 0.08 | 0.18 | 0.18 | 81 | 1009.9 |
| 20260505022118 | 10 | 321 | 0.0 | 3.2 | 0.03 | 0.13 | 0.13 | 78 | 1009.7 |
| 20260505022036 | 10 | 321 | 0.0 | 3.2 | 0.03 | 0.13 | 0.13 | 78 | 1009.7 |
| 20260505021038 | 10 | 342 | 0.0 | 3.2 | 0.00 | 0.10 | 0.10 | 73 | 1009.6 |
| 20260505020023 | 10 | 342 | 0.0 | 3.2 | 0.00 | 0.10 | 0.10 | 72 | 1009.7 |
| 20260505015025 | 10 | 342 | 0.0 | 4.8 | 0.00 | 0.10 | 0.10 | 73 | 1009.6 |
| 20260505014111 | 11 | 286 | 1.6 | 12.9 | 0.00 | 0.10 | 0.10 | 69 | 1009.5 |
| 20260505013114 | 11 | 327 | 6.4 | 16.1 | 0.00 | 0.10 | 0.10 | 69 | 1009.2 |
| 20260505013032 | 11 | 327 | 6.4 | 16.1 | 0.00 | 0.10 | 0.10 | 69 | 1009.2 |
| 20260505012030 | 11 | 314 | 6.4 | 22.5 | 0.00 | 0.10 | 0.10 | 67 | 1009.4 |
| 20260505011014 | 11 | 327 | 9.7 | 19.3 | 0.00 | 0.10 | 0.10 | 64 | 1009.2 |
| 20260505010015 | 12 | 360 | 6.4 | 22.5 | 0.00 | 0.10 | 0.10 | 62 | 1009.2 |
| 20260505005100 | 13 | 302 | 4.8 | 9.7 | 0.00 | 0.10 | 0.10 | 60 | 1009.1 |
| 20260505004102 | 13 | 339 | 1.6 | 9.7 | 0.00 | 0.10 | 0.10 | 60 | 1008.9 |
| 20260505003022 | 14 | 344 | 4.8 | 9.7 | 0.00 | 0.10 | 0.10 | 60 | 1008.9 |
| 20260505002045 | 14 | 322 | 0.0 | 4.8 | 0.00 | 0.10 | 0.10 | 61 | 1008.9 |
| 20260505001026 | 14 | 322 | 1.6 | 4.8 | 0.00 | 0.10 | 0.10 | 58 | 1008.6 |
| 20260505000132 | 13 | 322 | 0.0 | 3.2 | 0.00 | 0.10 | 0.10 | 63 | 1008.6 |
| 20260505000028 | 13 | 322 | 0.0 | 3.2 | 0.00 | 0.10 | 0.10 | 63 | 1008.6 |
| 20260504235030 | 13 | 322 | 1.6 | 3.2 | 0.05 | 0.10 | 0.10 | 65 | 1008.9 |
| 20260504234114 | 13 | 312 | 3.2 | 6.4 | 0.05 | 0.10 | 0.10 | 65 | 1008.8 |
| 20260504234011 | 13 | 312 | 3.2 | 6.4 | 0.05 | 0.10 | 0.10 | 65 | 1008.8 |
| 20260504232036 | 13 | 341 | 3.2 | 4.8 | 0.05 | 0.10 | 0.10 | 65 | 1008.5 |
| 20260504231039 | 12 | 295 | 0.0 | 8.0 | 0.05 | 0.10 | 0.10 | 68 | 1008.7 |
| 20260504225023 | 15 | 265 | 4.8 | 16.1 | 0.00 | 0.05 | 0.05 | 50 | 1008.7 |
| 20260504224129 | 15 | 217 | 14.5 | 19.3 | 0.00 | 0.05 | 0.05 | 50 | 1008.7 |
| 20260504224046 | 15 | 217 | 14.5 | 19.3 | 0.00 | 0.05 | 0.05 | 50 | 1008.7 |
| 20260504223050 | 15 | 244 | 11.3 | 14.5 | 0.00 | 0.05 | 0.05 | 51 | 1008.7 |
| 20260504222053 | 16 | 288 | 1.6 | 3.2 | 0.00 | 0.05 | 0.05 | 46 | 1008.3 |
| 20260504221055 | 16 | 345 | 3.2 | 6.4 | 0.00 | 0.05 | 0.05 | 47 | 1007.6 |
| 20260504220035 | 16 | 344 | 3.2 | 9.7 | 0.00 | 0.05 | 0.05 | 48 | 1007.3 |
| 20260504215122 | 16 | 329 | 3.2 | 9.7 | 0.00 | 0.05 | 0.05 | 44 | 1007.0 |
| 20260504215039 | 16 | 329 | 3.2 | 9.7 | 0.00 | 0.05 | 0.05 | 44 | 1007.0 |
| 20260504214125 | 16 | 5 | 3.2 | 9.7 | 0.05 | 0.05 | 0.05 | 47 | 1007.4 |
| 20260504214042 | 16 | 5 | 3.2 | 9.7 | 0.05 | 0.05 | 0.05 | 47 | 1007.4 |
| 20260504213022 | 17 | 340 | 4.8 | 19.3 | 0.05 | 0.05 | 0.05 | 49 | 1007.6 |
| 20260504212129 | 17 | 65 | 9.7 | 17.7 | 0.05 | 0.05 | 0.05 | 47 | 1007.7 |
| 20260504211050 | 16 | 344 | 6.4 | 16.1 | 0.05 | 0.05 | 0.05 | 51 | 1007.9 |
| 20260504210135 | 13 | 337 | 4.8 | 22.5 | 0.05 | 0.05 | 0.05 | 61 | 1008.2 |
| 20260504210031 | 13 | 337 | 4.8 | 22.5 | 0.05 | 0.05 | 0.05 | 61 | 1008.2 |
| 20260504205033 | 12 | 330 | 8.0 | 20.9 | 0.05 | 0.05 | 0.05 | 64 | 1008.2 |
| 20260504204013 | 17 | 17 | 8.0 | 16.1 | 0.00 | 0.00 | 0.00 | 42 | 1008.0 |
| 20260504203017 | 19 | 11 | 4.8 | 19.3 | 0.00 | 0.00 | 0.00 | 29 | 1008.0 |
| 20260504202018 | 20 | 192 | 12.9 | 20.9 | 0.00 | 0.00 | 0.00 | 27 | 1007.1 |
| 20260504201042 | 20 | 174 | 9.7 | 27.4 | 0.00 | 0.00 | 0.00 | 27 | 1007.2 |
| 20260504200044 | 21 | 322 | 1.6 | 14.5 | 0.00 | 0.00 | 0.00 | 25 | 1006.7 |
| 20260504195130 | 22 | 311 | 6.4 | 16.1 | 0.00 | 0.00 | 0.00 | 25 | 1006.7 |
| 20260504195027 | 22 | 311 | 6.4 | 16.1 | 0.00 | 0.00 | 0.00 | 25 | 1006.7 |
| 20260504194110 | 22 | 290 | 9.7 | 22.5 | 0.00 | 0.00 | 0.00 | 26 | 1006.6 |
| 20260504193029 | 22 | 15 | 8.0 | 19.3 | 0.00 | 0.00 | 0.00 | 24 | 1006.6 |
| 20260504192053 | 22 | 336 | 6.4 | 19.3 | 0.00 | 0.00 | 0.00 | 24 | 1006.5 |
| 20260504191116 | 22 | 254 | 4.8 | 12.9 | 0.00 | 0.00 | 0.00 | 22 | 1006.6 |
| 20260504190015 | 23 | 263 | 9.7 | 17.7 | 0.00 | 0.00 | 0.00 | 19 | 1006.7 |
| 20260504185040 | 24 | 263 | 6.4 | 16.1 | 0.00 | 0.00 | 0.00 | 20 | 1006.8 |
| 20260504184104 | 23 | 271 | 6.4 | 22.5 | 0.00 | 0.00 | 0.00 | 21 | 1006.9 |
| 20260504183107 | 23 | 283 | 9.7 | 20.9 | 0.00 | 0.00 | 0.00 | 23 | 1007.0 |
| 20260504183025 | 23 | 283 | 9.7 | 20.9 | 0.00 | 0.00 | 0.00 | 23 | 1007.0 |
| 20260504182109 | 22 | 315 | 6.4 | 24.1 | 0.00 | 0.00 | 0.00 | 27 | 1007.3 |
| 20260504181029 | 21 | 218 | 12.9 | 24.1 | 0.00 | 0.00 | 0.00 | 25 | 1007.5 |
| 20260504180014 | 21 | 310 | 12.9 | 24.1 | 0.00 | 0.00 | 0.00 | 27 | 1007.6 |
| 20260504174100 | 20 | 286 | 16.1 | 25.7 | 0.00 | 0.00 | 0.00 | 28 | 1008.0 |
| 20260504173103 | 20 | 300 | 8.0 | 24.1 | 0.00 | 0.00 | 0.00 | 31 | 1008.2 |
| 20260504172126 | 19 | 235 | 9.7 | 24.1 | 0.00 | 0.00 | 0.00 | 29 | 1008.5 |
| 20260504172043 | 19 | 235 | 9.7 | 24.1 | 0.00 | 0.00 | 0.00 | 29 | 1008.5 |
| 20260504171025 | 18 | 255 | 12.9 | 25.7 | 0.00 | 0.00 | 0.00 | 29 | 1008.5 |
| 20260504170105 | 18 | 263 | 9.7 | 22.5 | 0.00 | 0.00 | 0.00 | 30 | 1008.6 |
| 20260504151111 | 17 | 250 | 3.2 | 14.5 | 0.00 | 0.00 | 0.00 | 30 | 1008.7 |
| 20260504151029 | 17 | 250 | 3.2 | 14.5 | 0.00 | 0.00 | 0.00 | 30 | 1008.7 |
| 20260504141101 | 16 | 216 | 19.3 | 32.2 | 0.00 | 0.00 | 0.00 | 28 | 1008.5 |
| 20260504141019 | 16 | 216 | 19.3 | 32.2 | 0.00 | 0.00 | 0.00 | 28 | 1008.5 |
| 20260504081109 | 10 | 98 | 0.0 | 4.8 | 0.00 | 0.00 | 0.00 | 40 | 1009.6 |
| 20260504080107 | 9 | 109 | 1.6 | 3.2 | 0.00 | 0.00 | 0.00 | 41 | 1009.8 |
| 20260504070127 | 10 | 337 | 0.0 | 0.0 | 0.00 | 0.00 | 0.00 | 41 | 1010.4 |
| 20260504050134 | 15 | 333 | 1.6 | 11.3 | 0.00 | 0.00 | 0.00 | 31 | 1010.4 |
| 20260504045116 | 14 | 323 | 4.8 | 9.7 | 0.00 | 0.00 | 0.00 | 31 | 1010.4 |
| 20260504044120 | 15 | 355 | 1.6 | 9.7 | 0.00 | 0.00 | 0.00 | 32 | 1010.2 |
| 20260504044017 | 15 | 355 | 1.6 | 9.7 | 0.00 | 0.00 | 0.00 | 32 | 1010.2 |
| 20260504043019 | 15 | 219 | 6.4 | 11.3 | 0.00 | 0.00 | 0.00 | 31 | 1010.1 |
| 20260504042104 | 15 | 202 | 6.4 | 12.9 | 0.00 | 0.00 | 0.00 | 31 | 1010.1 |
| 20260504042022 | 15 | 202 | 6.4 | 12.9 | 0.00 | 0.00 | 0.00 | 31 | 1010.1 |
| 20260504041046 | 15 | 221 | 8.0 | 11.3 | 0.00 | 0.00 | 0.00 | 32 | 1010.3 |
| 20260504040048 | 15 | 213 | 8.0 | 11.3 | 0.00 | 0.00 | 0.00 | 31 | 1010.3 |